www.pogodaiklimat.ru

Погода и климат >> Архив погоды >> Россия >> Камчатский край >> Чемурнаут


ПОГОДА в Чемурнауте

  • Прогноз погоды в Чемурнауте
  • Монитор погоды в Чемурнауте
  • Климат города

АРХИВ ПОГОДЫ в Чемурнауте

Время (UTC), дата Ветер
(напр.,м/с)
 
Видим.   Явления Облачность Т
(С)
Тd
(С)
f
(%)
Тe
(С)
Тes
(С)
Комфортность P
(гПа)
Po
(гПа)
Тmin
(С)
Tmax
(С)
R
(мм)
R24
(мм)
S
(см)
21 12.10 СЗ 14-18
{18}
2000 м метель {ливн. осадки} 10/10 300 м
[Cb cap]
-2.1 -4.6 83 -12 -12 987.1 985.3 -2.7 2
00 13.10 З 9-12
{18}
20 км {ливн. осадки, метель} 10/10 300 м
[St]
-1.7 -5.1 78 -10 -10 987.0 985.2
03 13.10 З 9-12
{12}
20 км 9/9 300 м
[St]
-1.6 -5.3 76 -10 -10 987.0 985.2
06 13.10 СЗ 9-12
{12}
20 км 9/9 300 м
[St]
-1.0 -5.6 71 -9 -9 986.8 985.0
09 13.10 СЗ 5
{12}
20 км 10/10 300 м
[St]
-0.7 -4.5 75 -7 -7 987.2 985.4 -0.7 0.0
12 13.10 СЗ 6 20 км 10/10 300 м
[St]
-0.9 -5.1 73 -8 -8 987.6 985.8
15 13.10 З 5 10 км слабый ливневой снег 10/10 300 м
[Cb cap]
-2.9 -4.0 92 -10 -10 988.1 986.3
18 13.10 З 4 20 км {ливн. осадки} 10/10 300 м
[St]
-2.6 -4.1 89 -9 -9 989.0 987.2
21 13.10 З 6 50 км 9/9 300 м
[St]
-0.4 -4.4 74 -7 -7 989.3 987.5 -2.1 0.8 1
00 14.10 СЗ 5 50 км 9/9 300 м
[St]
+0.4 -3.9 73 -5 -5 990.6 988.8
03 14.10 СЗ 3 50 км 9/8 300 м
[St Ci fib]
+0.9 -4.0 70 -3 -3 991.4 989.6
06 14.10 СЗ 5 50 км 9/9 300 м
[St]
+0.7 -3.9 71 -5 -5 992.5 990.7
09 14.10 З 7 20 км 4/4 300 м
[St]
+0.7 -5.0 66 -6 -6 993.9 992.1 +1.3
12 14.10 З 7 20 км 4/4 300 м
[St]
+1.0 -4.3 68 -5 -5 995.3 993.5
15 14.10 З 7 20 км 6/6 300 м
[St]
+0.4 -5.0 67 -6 -6 996.7 994.9
18 14.10 З 2 20 км 9/9 600 м
[Sc]
-1.3 -6.4 68 -5 -5 997.1 995.3
21 14.10 С 5 50 км 9/9 600 м
[Sc]
-0.5 -6.4 64 -6 -6 998.3 996.5 -1.7 1
00 15.10 СЗ 5 50 км 8/6 1000 м
[Sc Ci fib]
+0.5 -5.3 65 -5 -5 999.9 998.1
03 15.10 СЗ 4 50 км 9/9 1000 м
[Sc]
+0.7 -5.0 66 -4 -4 999.6 997.8
06 15.10 З 3 20 км 8/6 1000 м
[Sc Ci fib]
-0.4 -5.5 68 -5 -5 1000.1 998.3
09 15.10 СЗ 4 20 км 9/9 600 м
[Sc]
-0.1 -5.2 68 -5 -5 1000.5 998.7 +1.0
12 15.10 З 4 20 км 9/9 600 м
[Sc]
+0.8 -4.6 67 -4 -4 1000.7 998.9
15 15.10 СЗ 6 20 км 4/3 600 м
[Sc Ci fib]
+3.0 -8.7 42 -2 -2 1006.5 1003.9
18 15.10 З 6 20 км 8/8 1000 м
[Sc]
+0.8 -4.9 66 -5 -5 1001.5 999.7
21 15.10 Ю 1 20 км 9/9 600 м
[Sc]
-0.8 -4.6 75 -3 -3 1001.8 1000.0 -0.8 1
00 16.10 СЗ 2 50 км 9/9 600 м
[Sc]
+1.5 -3.3 70 -2 -1 1002.2 1000.4
03 16.10 С 1 50 км 9/9 1000 м
[Sc]
+1.3 -2.8 74 -0 -0 1002.3 1000.5
06 16.10 С 2 50 км 9/9 1000 м
[Sc]
+0.9 -4.8 66 -2 -2 1002.5 1000.7
09 16.10 С 3 20 км 9/9 1000 м
[Sc]
+0.7 -4.6 68 -3 -3 1003.2 1001.4 +1.7
12 16.10 ЮВ 2 20 км 9/9 1000 м
[Sc]
-1.1 -5.4 73 -5 -5 1004.0 1002.2
15 16.10 Ю 1 20 км 9/9 1000 м
[Sc]
-2.3 -5.9 76 -4 -4 1003.8 1002.0
18 16.10 ЮВ 2 20 км 9/9 600 м
[Sc]
-3.2 -6.0 81 -7 -7 1004.0 1002.2
21 16.10 Ю 2 10 км слабый ливневой снег 10/10 600 м
[Cb cap]
-2.5 -4.4 87 -7 -7 1005.0 1003.2 -3.3 1 1
00 17.10 Ю 1 20 км {ливн. осадки} 9/9 1000 м
[Sc diur, vesp]
+0.1 -3.4 77 -2 -2 1005.8 1004.0
03 17.10 В 1 20 км 9/9 600 м
[Sc]
-0.2 -4.2 74 -2 -2 1006.4 1004.6
06 17.10 ЮВ 2 20 км в посл. час ливневой снег 9/9 600 м
[Sc diur, vesp]
-1.0 -2.9 87 -5 -5 1007.2 1005.4
09 17.10 ЮВ 1 20 км в посл. час ливневой снег 9/9 600 м
[Sc diur, vesp]
-1.7 -3.4 88 -4 -4 1008.8 1007.0 +0.3 1
12 17.10 З 1 20 км {ливн. осадки} 9/9 600 м
[Sc]
-1.6 -4.3 82 -4 -4 1009.8 1008.0
15 17.10 СВ 3 20 км 9/9 600 м
[Sc]
-0.5 -3.8 78 -5 -5 1010.5 1008.7
18 17.10 С 2 20 км 9/9 600 м
[Sc]
-0.2 -3.5 78 -4 -4 1011.6 1009.8
21 17.10 Ю 2 20 км 9/6 600 м
[Sc As trans]
-2.4 -4.3 87 -6 -6 1013.0 1011.2 -2.4 2
00 18.10 Ю 1 20 км 9/5 300 м
[St As trans Ci fib]
-0.6 -2.7 86 -3 -2 1014.8 1013.0
03 18.10 Ю 2 20 км 9/4 300 м
[St As trans Ci fib]
-1.1 -4.0 81 -5 -4 1016.2 1014.4
06 18.10 Ю 2 20 км 9/9 300 м
[St]
-2.4 -4.6 85 -6 -6 1017.6 1015.8
09 18.10 Ю 1 20 км 3/3 300 м
[St]
-5.8 -8.4 82 -8 -8 1019.6 1017.8 -0.4
12 18.10 Ю 3 20 км 3/3 300 м
[St]
-8.9 -10.9 85 -15 -15 1021.1 1019.2
15 18.10 Ю 3 20 км 4/4 300 м
[St]
-6.7 -10.0 77 -12 -12 1021.8 1020.0
18 18.10 СЗ 1 20 км 6/4 600 м
[Sc As trans]
-5.2 -8.9 75 -7 -7 1022.3 1020.5
21 18.10 З 2 50 км 6/6 1000 м
[Sc]
-5.5 -8.9 77 -10 -10 1022.3 1020.5 -9.2 2
00 19.10 В 5 50 км 4/4 1000 м
[Sc]
-4.7 -9.5 69 -12 -11 1022.5 1020.7
03 19.10 В 4 50 км 4/4 1000 м
[St]
-2.8 -7.7 69 -9 -8 1021.2 1019.4
06 19.10 В 5 20 км 6/6 1000 м
[Sc]
-4.4 -8.3 74 -11 -11 1020.8 1019.0
09 19.10 В 4 20 км 6/6 1000 м
[Sc]
-5.6 -9.4 75 -12 -12 1020.9 1019.1 -2.4
12 19.10 В 4 20 км 4/4 1000 м
[Sc]
-6.3 -10.3 73 -13 -13 1020.5 1018.7

 

Местоположение метеостанции Чемурнаут (Камчатский край, Россия): широта 60.73 долгота 163.00 высота над уровнем моря 14 м.

В архиве по умолчанию представлена погода в Чемурнауте за последнюю неделю. Архивные данные за месяц целиком и за предыдущие месяцы, начиная с января 2011 года, Вы можете получить, выбрав интересующий диапазон дат из раскрывающегося списка и нажав кнопку "Ввод!".

Внимание! Время в таблицах - всемирное. Для получения местного времени необходимо прибавить поправку, которая в Чемурнауте равна 12 ч.

Смотрите также архив погоды в соседних городах и на ближайших метеорологических станциях:

Погода в Оссоре (Камчатский край, Россия) (167 км)
Погода в Тиличиках (Камчатский край, Россия) (167 км)
Погода в Эвенске (Магаданская область, Россия) (242 км)
Погода в Палане (Камчатский край, Россия) (252 км)
Погода в Каменском (Камчатский край, Россия) (258 км)
Погода в Усть-Воямполке (Камчатский край, Россия) (331 км)
Погода на Мысе Озерном (Камчатский край, Россия) (343 км)
Погода в Апуке (Камчатский край, Россия) (362 км)
Погода в Лабазной (Магаданская область, Россия) (370 км)
Погода в Слаутном (Камчатский край, Россия) (372 км)

Пояснения к столбцам:

Ветер - указаны скорость ветра в м/с - средняя за 10 мин, порывы в срок и между сроками (в фигурных скобках) и направление, откуда дует ветер: С - северный, СВ - северо-восточный, В - восточный, ЮВ - юго-восточный, Ю - южный, ЮЗ - юго-западный, З - западный, СЗ - северо-западный.
Видимость - горизонтальная дальность видимости в метрах или километрах. При видимости от 1 до 10 км при отсутствии осадков обычно наблюдается дымка, при ухудшении видимости до 1 км и менее - туман. В сухую погоду видимость может ухудшаться дымом, пылью или мглою.
Явления - указаны атмосферные явления, наблюдавшиеся в срок или в последний час перед сроком; фигурными скобками обозначены явления, наблюдавшиеся между сроками (за 1-3 часа до срока); квадратными скобками обозначены град или гололедные отложения с указанием их диаметра в мм.
Облачность - указаны через наклонную черту общая и нижняя облачность в баллах и высота нижней границы облаков в метрах; квадратными скобками обозначены формы облаков: Ci - перистые, Cs - перисто-слоистые, Cc - перисто-кучевые, Ac - высококучевые, As - высокослоистые, Sc - слоисто-кучевые, Ns - слоисто-дождевые, Cu - кучевые, Cb - кучево-дождевые. Подробнее классификацию облаков см. в Атласе облаков (PDF).
T - Температура воздуха - температура, измеренная на высоте 2 м над землей.
Td - Температура точки росы - температура, при понижении до которой содержащийся в воздухе водяной пар достигнет насыщения.
f - Относительная влажность воздуха - влажноcть воздуха, измеренная на высоте 2 м над землей.
Te - Эффективная температура - температура, которую ощущает одетый по сезону человек в тени. Характеристика душности погоды. При расчете учитывается влияние влажности воздуха и скорости ветра на теплоощущения человека.
Tes - Эффективная температура на солнце - температура, которую ощущает человек, с поправкой на солнечный нагрев. Характеристика знойности погоды. Зависит от высоты солнца над горизонтом, облачности и скорости ветра. Ночью, в пасмурную погоду, а также при ветре 12 м/с и более поправка равна нулю.
P - Атмосферное давление - приведенное к уровню моря атмосферное давление.
Po - Атмосферное давление - измеренное на уровне метеостанции атмосферное давление.
Tmin - Минимальная температура - минимум температуры воздуха на высоте 2 м над землей.
Tmax - Максимальная температура - максимум температуры воздуха на высоте 2 м над землей.
R - Количество осадков - Количество выпавших осадков за период времени, мм. При наведении курсора мыши на число - период времени, за который выпало указанное количество осадков.
R24 - Количество осадков - Количество выпавших осадков за 24 часа, мм.
S - Снежный покров - Высота снежного покрова, см. При наведении курсора мыши на число - состояние снежного покрова и степень покрытия местности в баллах.